Alexander City, AL

3:55 PM CST on February 08, 2016 (GMT -0600)
Russell

Weather History for KALX - March, 2014

Change the Weather History Date:

Sunday, March 9, 2014

  Actual Average (KAUO) Record (KAUO)
Temperature  
Mean Temperature 60 °F -  
Max Temperature 75 °F - 86 °F (1974)
Min Temperature 45 °F - 25 °F (1971)
Degree Days  
Heating Degree Days 5    
Month to date heating degree days  
Since 1 July heating degree days  
Cooling Degree Days 0    
Month to date cooling degree days  
Year to date cooling degree days  
Growing Degree Days 10 (Base 50)    
Moisture  
Dew Point 44 °F    
Average Humidity 61    
Maximum Humidity 86    
Minimum Humidity 27    
Precipitation  
Precipitation 0.00 in - 1.80 in (1976)
Month to date precipitation  
Year to date precipitation  
Sea Level Pressure  
Sea Level Pressure 30.17 in    
Wind  
Wind Speed 1 mph (WNW)    
Max Wind Speed 12 mph    
Max Gust Speed -    
Visibility 10 miles    
Events      
T = Trace of Precipitation, MM = Missing Value Source: NWS Daily Summary

Daily Weather History Graph

Daily Weather History Graph

Search for Another Location

Airport or City:

Trip Planner

Search our weather history database for the weather conditions in past years. The results will help you decide how hot, cold, wet, or windy it might be!

Date:

Astronomy

Mar. 09, 2014 Rise Set
Actual Time 7:01 AM CDT 6:47 PM CDT
Civil Twilight 6:37 AM CDT 7:11 PM CDT
Nautical Twilight 6:08 AM CDT 7:40 PM CDT
Astronomical Twilight 5:40 AM CDT 8:09 PM CDT
Moon 12:52 PM CDT (3/9) 3:13 AM CDT (3/9)
Length of Visible Light 12h 34m
Length of Day
11h 45m
First Quarter, 61% of the Moon is Illuminated
Mar 9
First Quarter
Mar 16
Full
Mar 23
Last Quarter
Mar 30
New
Apr 7
First Quarter

Hourly Weather History & Observations

Time (CDT) Temp. Dew Point Humidity Pressure Visibility Wind Dir Wind Speed Gust Speed Precip Events Conditions
12:00 AM 50.2 °F 45.0 °F 82% 30.16 in 10.0 mi Calm Calm - N/A   Clear
12:15 AM 50.2 °F 45.0 °F 82% 30.16 in 10.0 mi Calm Calm - N/A   Clear
12:35 AM 50.2 °F 44.1 °F 79% 30.17 in 10.0 mi Calm Calm - N/A   Clear
12:55 AM 51.4 °F 46.4 °F 83% 30.16 in 10.0 mi Calm Calm - N/A   Clear
1:15 AM 50.5 °F 45.5 °F 83% 30.16 in 10.0 mi Calm Calm - N/A   Clear
1:35 AM 50.2 °F 45.0 °F 82% 30.16 in 10.0 mi Calm Calm - N/A   Clear
1:55 AM 50.2 °F 44.8 °F 82% 30.16 in 10.0 mi Calm Calm - N/A   Clear
3:15 AM 52.2 °F 46.2 °F 80% 30.15 in 10.0 mi Calm Calm - N/A   Clear
3:35 AM 51.4 °F 43.9 °F 75% 30.15 in 10.0 mi Calm Calm - N/A   Clear
3:55 AM 50.2 °F 45.1 °F 83% 30.15 in 10.0 mi Calm Calm - N/A   Clear
4:15 AM 50.2 °F 45.0 °F 82% 30.15 in 10.0 mi Calm Calm - N/A   Clear
4:35 AM 50.2 °F 45.7 °F 85% 30.15 in 10.0 mi Calm Calm - N/A   Scattered Clouds
4:55 AM 50.2 °F 45.7 °F 85% 30.16 in 10.0 mi Calm Calm - N/A   Scattered Clouds
5:15 AM 50.2 °F 45.5 °F 84% 30.16 in 10.0 mi Calm Calm - N/A   Clear
5:40 AM 50.2 °F 45.7 °F 85% 30.17 in 10.0 mi Calm Calm - N/A   Clear
5:55 AM 50.2 °F 45.7 °F 85% 30.17 in 10.0 mi Calm Calm - N/A   Clear
6:15 AM 50.2 °F 45.7 °F 85% 30.17 in 5.0 mi Calm Calm - N/A   Clear
6:35 AM 50.2 °F 45.9 °F 85% 30.18 in 10.0 mi Calm Calm - N/A   Clear
6:55 AM 47.8 °F 43.7 °F 86% 30.19 in 5.0 mi Calm Calm - N/A   Clear
7:15 AM 45.5 °F 41.4 °F 85% 30.20 in 5.0 mi Calm Calm - N/A   Haze
7:35 AM 47.7 °F 43.7 °F 86% 30.20 in 5.0 mi Calm Calm - N/A   Clear
7:55 AM 50.2 °F 46.0 °F 86% 30.20 in 7.0 mi Calm Calm - N/A   Clear
8:15 AM 50.2 °F 45.9 °F 85% 30.21 in 10.0 mi Calm Calm - N/A   Clear
8:35 AM 54.7 °F 49.3 °F 82% 30.21 in 10.0 mi Calm Calm - N/A   Clear
8:55 AM 57.7 °F 48.9 °F 72% 30.22 in 10.0 mi Calm Calm - N/A   Clear
9:15 AM 59.4 °F 48.2 °F 67% 30.22 in 10.0 mi Calm Calm - N/A   Clear
9:35 AM 61.3 °F 45.9 °F 57% 30.22 in 10.0 mi Calm Calm - N/A   Scattered Clouds
9:55 AM 62.1 °F 44.2 °F 52% 30.22 in 10.0 mi North 3.5 mph - N/A   Scattered Clouds
10:15 AM 62.8 °F 43.9 °F 50% 30.22 in 10.0 mi North 4.6 mph - N/A   Scattered Clouds
10:35 AM 63.5 °F 41.9 °F 45% 30.23 in 10.0 mi NNE 3.5 mph - N/A   Scattered Clouds
10:55 AM 65.5 °F 43.3 °F 45% 30.22 in 10.0 mi NNE 3.5 mph - N/A   Scattered Clouds
11:15 AM 68.0 °F 43.9 °F 42% 30.21 in 10.0 mi Calm Calm - N/A   Clear
11:35 AM 70.7 °F 45.1 °F 40% 30.21 in 10.0 mi NE 5.8 mph - N/A   Clear
11:55 AM 70.7 °F 44.4 °F 39% 30.21 in 10.0 mi NE 4.6 mph - N/A   Scattered Clouds
12:15 PM 70.7 °F 41.5 °F 35% 30.21 in 10.0 mi WNW 3.5 mph - N/A   Scattered Clouds
12:35 PM 71.4 °F 40.6 °F 33% 30.20 in 10.0 mi WNW 11.5 mph - N/A   Scattered Clouds
12:55 PM 70.7 °F 39.6 °F 32% 30.20 in 10.0 mi WNW 9.2 mph - N/A   Scattered Clouds
1:15 PM 70.7 °F 39.6 °F 32% 30.19 in 10.0 mi NW 4.6 mph - N/A   Mostly Cloudy
1:35 PM 71.4 °F 39.4 °F 31% 30.18 in 10.0 mi NW 8.1 mph - N/A   Scattered Clouds
1:55 PM 70.7 °F 37.4 °F 30% 30.18 in 10.0 mi WNW 6.9 mph - N/A   Clear
2:15 PM 70.7 °F 38.7 °F 31% 30.18 in 10.0 mi WNW 8.1 mph - N/A   Clear
2:35 PM 70.7 °F 40.3 °F 33% 30.17 in 10.0 mi NW 5.8 mph - N/A   Scattered Clouds
2:55 PM 71.1 °F 39.0 °F 31% 30.16 in 10.0 mi Calm Calm - N/A   Clear
3:15 PM 70.7 °F 36.5 °F 29% 30.16 in 10.0 mi West 5.8 mph - N/A   Scattered Clouds
3:35 PM 74.7 °F 38.3 °F 27% 30.16 in 10.0 mi West 5.8 mph - N/A   Clear
3:55 PM 72.3 °F 38.7 °F 29% 30.15 in 10.0 mi Calm Calm - N/A   Clear
4:15 PM 74.5 °F 39.7 °F 29% 30.14 in 10.0 mi SW 6.9 mph - N/A   Scattered Clouds
4:35 PM 75.0 °F 40.3 °F 29% 30.13 in 10.0 mi Calm Calm - N/A   Clear
4:55 PM 75.6 °F 39.6 °F 27% 30.13 in 10.0 mi WNW 4.6 mph - N/A   Clear
5:15 PM 75.2 °F 40.6 °F 29% 30.13 in 10.0 mi WSW 5.8 mph - N/A   Clear
5:35 PM 74.5 °F 40.5 °F 29% 30.13 in 10.0 mi West 8.1 mph - N/A   Clear
5:55 PM 73.0 °F 40.5 °F 31% 30.13 in 10.0 mi WSW 4.6 mph - N/A   Clear
6:15 PM 70.7 °F 39.9 °F 33% 30.13 in 10.0 mi WSW 4.6 mph - N/A   Clear
6:35 PM 70.7 °F 43.3 °F 37% 30.13 in 10.0 mi Calm Calm - N/A   Clear
6:55 PM 68.0 °F 44.8 °F 43% 30.13 in 10.0 mi Calm Calm - N/A   Clear
7:15 PM 64.8 °F 45.0 °F 49% 30.13 in 10.0 mi WNW 3.5 mph - N/A   Clear
7:35 PM 62.8 °F 44.4 °F 51% 30.13 in 10.0 mi WNW 3.5 mph - N/A   Clear
7:55 PM 61.7 °F 44.6 °F 53% 30.13 in 10.0 mi Calm Calm - N/A   Clear
8:15 PM 57.7 °F 47.7 °F 69% 30.14 in 10.0 mi Calm Calm - N/A   Clear
8:35 PM 57.7 °F 48.6 °F 71% 30.16 in 10.0 mi Calm Calm - N/A   Clear
8:55 PM 57.7 °F 50.5 °F 77% 30.16 in 10.0 mi Calm Calm - N/A   Clear
9:15 PM 57.7 °F 48.7 °F 72% 30.16 in 10.0 mi Calm Calm - N/A   Clear
9:35 PM 55.4 °F 47.3 °F 74% 30.16 in 10.0 mi Calm Calm - N/A   Clear
9:55 PM 55.9 °F 46.2 °F 70% 30.16 in 10.0 mi Calm Calm - N/A   Clear
10:15 PM 55.4 °F 46.4 °F 72% 30.16 in 10.0 mi Calm Calm - N/A   Clear
10:35 PM 55.4 °F 48.7 °F 78% 30.16 in 10.0 mi Calm Calm - N/A   Clear
10:55 PM 54.7 °F 47.7 °F 77% 30.16 in 10.0 mi Calm Calm - N/A   Clear
11:15 PM 52.2 °F 46.2 °F 80% 30.16 in 10.0 mi Calm Calm - N/A   Clear
11:35 PM 52.7 °F 47.3 °F 82% 30.15 in 10.0 mi Calm Calm - N/A   Clear
11:55 PM 50.4 °F 44.1 °F 79% 30.15 in 10.0 mi Calm Calm - N/A   Clear
12:15 AM 50.2 °F 43.7 °F 78% 30.15 in 10.0 mi Calm Calm - N/A   Clear
12:35 AM 50.2 °F 44.2 °F 80% 30.14 in 10.0 mi Calm Calm - N/A   Clear
12:55 AM 50.2 °F 45.0 °F 82% 30.14 in 10.0 mi Calm Calm - N/A   Clear